Back to catalog

COSMOS 886 DEB

AliveUNKNOWN
NORAD 9958·DEBRIS·🇷🇺 Russia

Launched Dec 27, 1976 from Baikonur Cosmodrome

Loading…

Next Passes (next 24 hours)

TLE

FreshSource: Space-Track

Epoch: Sep 14, 2026, 05:29 UTC

1 09958U 76126AY  26257.22911031  .00000496  00000-0  64100-3 0  9997
2 09958  65.8765 343.3836 0893509 192.2222 165.5755 12.62110791274663

Track COSMOS 886 DEB in real time with AllMySat

Download on the App Store